カタログに戻る

TELSTAR 12V

運用中通信GEO
NORAD 41036·PAYLOAD·🇨🇦 Canada

打ち上げ Nov 24, 2015 から Tanegashima Space Center

Loading…

TLE

最新Source: CelesTrak SupGP

元期: Sep 14, 2026, 04:59 UTC

1 41036C 15068A   26257.20833333 -.00000029  00000+0  00000+0 0  2578
2 41036   0.0126 116.6486 0002158  53.9025 242.6425  1.00271490    17

AllMySatでTELSTAR 12Vをリアルタイム追跡

Download on the App Store